Regional Weather Roundup
Issued by NWS

Home | Current Version | Previous Version | Graphics & Text | Print | Product List | Glossary On
Versions: 1 2 3 4 5 6 7 8 9 10 11 12 13 14 15 16 17 18 19 20 21 22 23 24 25 26 27 28 29 30 31 32 33 34 35 36 37 38 39 40 41 42 43 44 45 46 47 48 49 50
000
ASUS43 KBIS 022202
RWRND

NORTH DAKOTA REGIONAL WEATHER ROUNDUP
NATIONAL WEATHER SERVICE BISMARCK ND
500 PM CDT TUE JUN 02 2015

NOTE: "FAIR" INDICATES FEW OR NO CLOUDS BELOW 12,000 FEET WITH NO
SIGNIFICANT WEATHER AND/OR OBSTRUCTIONS TO VISIBILITY.


NDZ001>003-009>011-017-022300-
NORTHWEST NORTH DAKOTA

CITY           SKY/WX    TMP DP  RH WIND       PRES   REMARKS
WILLISTON      CLOUDY    59  55  87 NE16G25   29.76S
MINOT          CLOUDY    62  57  83 NE15      29.78S
MINOT AFB      CLOUDY    61  61 100 NE14      29.78S
$$

NDZ018>021-031>035-040>046-022300-
SOUTHWEST NORTH DAKOTA

CITY           SKY/WX    TMP DP  RH WIND       PRES   REMARKS
BISMARCK       MOSUNNY   78  65  63 E8        29.71F
DICKINSON      SUNNY     74  56  53 W21G26    29.76R
GARRISON         N/A     71  62  73 NE8       29.75R
HETTINGER ARPT SUNNY     76  56  49 W18       29.78F
$$

NDZ004>008-012>016-024-026-027-054-022300-
NORTHEAST NORTH DAKOTA

CITY           SKY/WX    TMP DP  RH WIND       PRES   REMARKS
GRAND FORKS    CLOUDY    69  60  73 SE3       29.79S
GRND FRKS AFB  CLOUDY    67  60  75 SE5       29.79S
DEVILS LAKE    CLOUDY    64  57  77 E13       29.78F
$$

NDZ022-023-025-028>030-036>039-047>053-022300-
SOUTHEAST NORTH DAKOTA

CITY           SKY/WX    TMP DP  RH WIND       PRES   REMARKS
FARGO          CLOUDY    77  62  59 S13G21    29.75F
JAMESTOWN      PTSUNNY   78  63  59 S14G21    29.71F
$$




USA.gov is the U.S. government's official web portal to all federal, state and local government web resources and services.